User: anonymous   Login
Location: Innsbruck
(47.2657°N, 11.3914°E)
Time: 06:29:31
(UTC+02:00)
Language:

BEESAT 2 - Orbit

View from above orbital plane
View from above orbital plane
View from above satellite
View from above satellite

Ground track
Ground track

The orbit data is extracted from the following two-line orbital elements,

1 39136U 13015G   22274.83115095  .00012817  00000-0  51943-3 0  9995
2 39136  64.8732 119.6806 0022685 292.6025  67.2705 15.24708309522122
Epoch (UTC): 01 October 2022 19:56:51
Eccentricity: 0.0022685
inclination: 64.8732°
perigee height: 476 km
apogee height: 507 km
right ascension of ascending node: 119.6806°
argument of perigee: 292.6025°
revolutions per day: 15.24708309
mean anomaly at epoch: 67.2705°
orbit number at epoch: 52212

The dashed part of the orbit path shows where the satellite is in the earth's shadow,  

DLR